Location: Kershaw
(34.5481°N, 80.5823°W)
Time: 20:14:17
(UTC+00:00)

deb Explorer IX - Pass Details

Date: 07 October 2022
Orbit: 533 x 1057 km, 38.8° (Epoch: 06 December)

Event Time Altitude Azimuth Distance (km) Brightness Sun altitude
Exits shadow 09:54:09 40° 239° (WSW) 890 ? -18.8°
Maximum altitude 09:55:42 80° 157° (SSE) 631 ? -18.5°
Drops below altitude 10° 10:00:36 10° 71° (ENE) 2,137 ? -17.5°
Sets 10:03:12 0° 71° (ENE) 3,148 ? -16.9°
